DECAYED
Showing default

FLOCK 1C 3, 40041 (Decayed)

Orbit data source: Space-Track

FLOCK 1C 3, 40041 was a payload satellite owned by Planet Labs (US) in LEO that was launched on Thu, 19 Jun 2014 UTC via a DNEPR launch vehicle from the Orenburg, Russia (OREN). Payload-class satellites include a variety of spacecraft equipped with specific instruments for various scientific and technological missions. These include communications satellites like Starlink; space stations such as the ISS; scientific satellites like the Hubble; Earth observation satellites from companies like Planet Labs, Umbra, and HawkEye 360; GPS; miniature CubeSats for education and research; and military/defense satellites.

Not visible in the next 10 days
Identifier
40041, 2014-033AH
Orbit
Decayed
Country
Flag of USUS
Related business
Manufacturer
Planet Labs
Mission
Decayed Commercial Imaging
Bus & Motor
CUBESAT 3U, Unknown motor
Mass
4.25 kg wet, 4.25 kg dry
Launch date (UTC)
2014-06-19 (11 years ago)
Launch vehicle
DNEPR
Launch site
Orenburg, Russia (OREN)
Object type
Payload
Rocket body
Debris
Shape & HBR
Box + 2 Pan, 0.1 m
Radar Cross Section
0.108 m², Small (<0.1 m²)

Expand to show TLE details & history
Last TLE update: 8 months ago

TLE from 8 months ago
0 FLOCK 1C 3
1 40041U 14033AH  24361.27396886  .17006764  30577-5  15831-2 0  9993
2 40041  98.0107   6.2475 0009465 190.3520 169.7584 16.38678871573240
Epoch: 2024-12-26T06:34Z
TLE epoch observation values (Epoch: 2024-12-26T06:34:30.909Z)
Latitude
0.00002°
Longitude
172.36299°
Altitude
178.65 km
Speed
7.795 km/s
True Right ascension
00h 24m 59s
True Declination
0° 00' 00"
Sunlit
Object was in daylight at epoch
Visualization orbit readout
Latitude
Unknown
Longitude
Unknown
Altitude
Unknown
Speed
Unknown
Apparent Right ascension
Unknown
Apparent Declination
Unknown
Sunlit
N/A
Visualization observer readout
Local Sidereal Time
16:04:37
Azimuth
Unknown
Elevation
Unknown
Doppler factor
Unknown
Orbital elements
Apogee altitude
172.351 km
Perigee altitude
159.963 km
Semi-major axis
6,544.294 km
Eccentricity
0.00095
Inclination
98.0107°
RAAN
6.2475°
Arg. of periapsis
190.352°
True anomaly
169.77766°
Mean anomaly
169.7584°
Eccentric anomaly
169.76803°
Mean motion
4.09967 °/min
Orbital period
87.81 mins
BSTAR
0.0015831
Loading maneuver chart data...
Computing Atmospheric mass density...
Loading historical data...
Loading historical data...
Loading historical data...
Loading historical data...
Loading historical data...
Loading historical data...
Loading historical data...

Documentation

Showing up to 5 results
|